User: anonymous   Login
Location: Oshawa
(43.9000°N, 78.8670°W)
Time: 17:11:52
(UTC-05:00)
Language:

Explorer 7 - Orbit

View from above orbital plane
View from above orbital plane
View from above satellite
View from above satellite

Ground track
Ground track

The orbit data is extracted from the following two-line orbital elements,

1    22U 59009A   17054.89874716 +.00000974 +00000-0 +97235-4 0  9994
2    22 050.2862 012.9264 0142672 321.0619 038.0120 14.93983018289466
Epoch (UTC): 23 February 2017 21:34:11
Eccentricity: 0.0142672
inclination: 50.2862°
perigee height: 486 km
apogee height: 685 km
right ascension of ascending node: 12.9264°
argument of perigee: 321.0619°
revolutions per day: 14.93983018
mean anomaly at epoch: 38.0120°
orbit number at epoch: 28946

The dashed part of the orbit path shows where the satellite is in the earth's shadow,  

DLR